Date,TemperatureHighF,TemperatureAvgF,TemperatureLowF,DewpointHighF,DewpointAvgF,DewpointLowF,HumidityHigh,HumidityAvg,HumidityLow,PressureMaxIn,PressureMinIn,WindSpeedMaxMPH,WindSpeedAvgMPH,GustSpeedMaxMPH,PrecipitationSumIn
2013-10-1,90,78,69,75,70,62,99,81,41,29.99,29.88,21,6,21,0.00
2013-10-2,89,78,72,75,72,70,99,83,58,30.04,29.88,18,8,18,0.00
2013-10-3,89,79,73,74,72,70,91,78,57,29.96,29.81,23,11,23,0.00
2013-10-4,89,81,76,73,71,68,90,73,57,29.93,29.83,25,13,25,0.00
2013-10-5,81,60,50,73,56,46,99,87,67,30.17,29.88,20,7,20,0.00
2013-10-6,75,58,46,50,47,42,99,71,39,30.12,30.01,23,4,23,0.00
2013-10-7,79,59,42,54,46,42,99,70,30,30.21,30.11,15,3,15,0.00
2013-10-8,81,62,45,56,51,45,99,71,37,30.19,30.04,17,4,17,0.00
2013-10-9,84,66,52,60,54,48,90,68,42,30.14,30.01,17,4,17,0.00
2013-10-10,83,70,57,63,58,54,92,69,47,30.12,29.92,19,7,19,0.00
2013-10-11,82,74,67,71,67,58,86,78,68,29.95,29.83,28,11,28,0.00
2013-10-12,82,72,66,73,68,65,98,87,70,30.15,29.90,19,6,19,0.01
2013-10-13,82,72,66,70,67,64,99,86,67,30.29,30.14,15,4,15,0.00
2013-10-14,71,65,62,70,63,58,99,93,79,30.23,29.96,24,7,24,0.00
2013-10-15,72,62,54,71,60,51,99,94,82,30.14,29.93,21,7,21,0.00
2013-10-16,62,58,51,47,46,45,80,65,56,30.13,30.06,17,6,17,0.00
2013-10-17,76,57,42,51,47,42,99,73,38,30.16,29.99,13,3,13,0.00
2013-10-18,61,52,46,59,50,44,99,94,77,30.19,29.98,21,4,21,0.00
2013-10-19,71,52,40,45,41,37,97,70,31,30.26,30.09,17,5,19,0.00
2013-10-20,72,63,50,49,44,39,90,52,32,30.06,29.90,25,9,25,0.00
2013-10-21,62,53,43,56,50,42,99,88,79,30.20,30.00,17,4,17,0.01
2013-10-22,80,55,36,50,44,36,99,74,32,30.20,29.99,16,4,16,0.00
2013-10-23,76,59,41,52,47,41,99,70,37,30.23,29.90,16,4,16,0.00
2013-10-24,67,55,46,50,44,38,98,68,41,30.44,29.94,21,6,21,0.00
2013-10-25,62,50,39,43,38,33,88,66,47,30.54,30.11,15,5,15,0.00
2013-10-26,60,54,47,56,49,40,99,84,66,30.31,30.13,17,4,17,0.00
2013-10-27,74,60,53,60,56,52,99,86,56,30.17,30.02,13,3,13,0.00
2013-10-28,74,62,49,62,57,49,99,84,60,30.17,30.07,17,5,17,0.00
2013-10-29,76,71,66,69,66,61,89,84,78,30.14,29.99,30,14,30,0.00
2013-10-30,75,69,64,68,65,62,96,88,73,30.04,29.83,37,15,37,0.00
2013-10-31,65,65,64,65,64,63,99,97,96,29.83,29.78,17,12,21,0.00